Location: Azul
(36.7830°S, 59.8500°W)
Time: 18:47:12
(UTC-03:00)

AIST 2D - Pass Details

Date: 27 October 2021
Orbit: 445 x 462 km, 97.1° (Epoch: 06 December)

Event Time Altitude Azimuth Distance (km) Brightness Sun altitude
Exits shadow 22:43:21 13° 214° (SW) 1,435 ? -32.6°
Drops below altitude 10° 22:43:50 10° 210° (SSW) 1,624 ? -32.7°
Sets 22:45:58 0° 201° (SSW) 2,484 ? -32.9°
